Home > Weather > Trois-Rivieres > Past weeks

Flag for Canada Past Weather in Trois-Rivieres, Quebec, Canada — Yesterday and Last 2 Weeks

Now
75 °F

Mild.


Feels Like: 77 °F
Forecast: 63 / 80 °F
Wind: 2 mph from West

Location: Trois Rivieres

Current Time: Jul 26, 2016 at 9:52:11 PM

Latest Report: Jul 26, 2016 at 9:00 PM


Visibility: N/A

Pressure: 29.81 "Hg

Humidity: 66%

Dew Point: 63 °F

Location of Trois-RivieresLocation

Past Weather in Trois-Rivieres — Graph

°F

Trois-Rivieres Temperature Yesterday

Maximum temperature yesterday: 72 °F (at 1:00 PM)
Minimum temperature yesterday: 65 °F (at 6:00 AM)
Average temperature yesterday: 68 °F

High & Low Weather Summary for the Past Weeks

 TemperatureHumidityPressure
High85 °F (Jul 22, 5:00 PM)100% (Jul 15, 7:00 PM)30.12 "Hg (Jul 15, 7:00 PM)
Low56 °F (Jul 19, 4:00 AM)37% (Jul 19, 4:00 PM)29.58 "Hg (Jul 22, 1:00 PM)
Average71 °F76%29.86 "Hg
* Reported Jul 11 8:00 PM — Jul 26 8:00 PM, Trois-Rivieres, Weather by CustomWeather, © 2016

Note: Actual official high and low records may vary slightly from our data, if they occured in-between our weather recording intervals... More about our weather records

Advertising

Trois-Rivieres Weather History for the Previous 24 Hours

Scroll right to see more
 ConditionsComfort  
Time TempWeatherWind HumidityBarometerVisibility
8:00 PM
Tue, Jul 26
79 °FWarm.5 mph59%29.80 "HgN/A
7:00 PM76 °FMild.10 mph80%29.78 "HgN/A
6:00 PM78 °FWarm.13 mph67%29.78 "HgN/A
5:00 PM77 °FWarm.12 mph69%29.77 "HgN/A
4:00 PM79 °FWarm.8 mph60%29.77 "HgN/A
3:00 PM79 °FWarm.8 mph63%29.77 "HgN/A
2:00 PM77 °FWarm.6 mph63%29.77 "HgN/A
1:00 PM78 °FWarm.5 mph67%29.77 "HgN/A
12:00 PM74 °FMild.5 mph75%29.77 "HgN/A
11:00 AM75 °FMild.7 mph71%29.76 "HgN/A
10:00 AM72 °FMild.5 mph84%29.76 "HgN/A
9:00 AM71 °FMild.5 mph85%29.75 "HgN/A
8:00 AM69 °FMild.3 mph95%29.73 "HgN/A
7:00 AM69 °FMild.3 mph95%29.72 "HgN/A
6:00 AM65 °FMild.5 mph100%29.70 "HgN/A
5:00 AM65 °FMild.2 mph100%29.68 "HgN/A
4:00 AM67 °FMild.1 mph97%29.67 "HgN/A
3:00 AM68 °FMild.3 mph97%29.67 "HgN/A
2:00 AM68 °FMild.2 mph96%29.67 "HgN/A
1:00 AM68 °FMild.2 mph98%29.67 "HgN/A
12:00 AM68 °FMild.1 mph97%29.68 "HgN/A
11:00 PM
Mon, Jul 25
69 °FMild.2 mph95%29.68 "HgN/A
10:00 PM68 °FMild.2 mph95%29.68 "HgN/A
9:00 PM68 °FMild.3 mph95%29.70 "HgN/A
Weather by CustomWeather, © 2016

See weather overviewHow to use our weather pages